THY8RW EDDF-LTFM

Flight info

Callsign THY8RW
Flight time N/A
Altitude 37000
Route CINDY8S/18 CINDY Z74 HAREM DCT ASLEP DCT TAKUT DCT DINKU L603 BESNI L605 MIQ DCT ALUTU DCT BIBAG L605 ESEGA DCT VELOM DCT GOTAR DCT BABIT DCT ESIRI DCT ETIDA T390 RILEX
Aircraft A333/H-SDE3GHIJ2J3J5M1RVWXY/LB2D1

Departure

Time N/A
Airport Frankfurt Main Airport (EDDF)

Arrival

Time 2026-02-19 22:15
Airport İstanbul Airport (LTFM)
Time Latitude Longitude Altitude Speed Heading
2026-02-19 20:54 46.49515 17.53315 36748 ft 465 kts 125°
2026-02-19 20:54 46.47889 17.57444 36732 ft 465 kts 125°
2026-02-19 20:54 46.44673 17.65590 36745 ft 466 kts 125°
2026-02-19 20:55 46.41447 17.73733 36742 ft 474 kts 125°
2026-02-19 20:55 46.38108 17.82121 36738 ft 487 kts 126°
2026-02-19 20:56 46.34677 17.90726 36728 ft 499 kts 125°
2026-02-19 20:56 46.31167 17.99512 36745 ft 507 kts 125°
2026-02-19 20:57 46.27638 18.08333 36751 ft 507 kts 125°
2026-02-19 20:57 46.24102 18.17138 36747 ft 506 kts 126°
2026-02-19 20:58 46.20566 18.25905 36740 ft 505 kts 126°
2026-02-19 20:58 46.17020 18.34662 36750 ft 506 kts 126°
2026-02-19 20:59 46.13455 18.43438 36752 ft 506 kts 126°
2026-02-19 20:59 46.09892 18.52186 36752 ft 506 kts 126°
2026-02-19 21:00 46.06320 18.60930 36759 ft 506 kts 126°
2026-02-19 21:00 46.02741 18.69659 36757 ft 506 kts 126°
2026-02-19 21:01 45.99164 18.78360 36762 ft 505 kts 126°
2026-02-19 21:01 45.95581 18.87046 36759 ft 505 kts 126°
2026-02-19 21:02 45.91624 18.95298 36758 ft 498 kts 135°
2026-02-19 21:02 45.87154 19.02897 36762 ft 498 kts 137°
2026-02-19 21:03 45.82582 19.10373 36762 ft 498 kts 138°
2026-02-19 21:03 45.78034 19.17771 36764 ft 498 kts 138°
2026-02-19 21:04 45.73425 19.25280 36756 ft 500 kts 138°
2026-02-19 21:04 45.68862 19.32711 36774 ft 501 kts 138°
2026-02-19 21:05 45.64261 19.40193 36772 ft 501 kts 138°
2026-02-19 21:05 45.59658 19.47657 36774 ft 501 kts 138°
2026-02-19 21:06 45.55053 19.55101 36782 ft 500 kts 138°
2026-02-19 21:06 45.50438 19.62539 36779 ft 500 kts 138°
2026-02-19 21:07 45.45819 19.69965 36779 ft 500 kts 138°
2026-02-19 21:07 45.41200 19.77372 36765 ft 500 kts 139°
2026-02-19 21:08 45.36583 19.84755 36785 ft 500 kts 139°
2026-02-19 21:08 45.31959 19.92128 36796 ft 500 kts 139°
2026-02-19 21:09 45.27324 19.99500 36802 ft 500 kts 139°
2026-02-19 21:09 45.22687 20.06856 36784 ft 500 kts 139°
2026-02-19 21:10 45.18037 20.14212 36810 ft 502 kts 139°
2026-02-19 21:10 45.13375 20.21567 36804 ft 502 kts 139°
2026-02-19 21:11 45.08702 20.28923 36813 ft 502 kts 139°
2026-02-19 21:11 45.04025 20.36266 36820 ft 502 kts 139°
2026-02-19 21:12 44.99344 20.43594 36806 ft 503 kts 139°
2026-02-19 21:12 44.94649 20.50925 36806 ft 503 kts 139°
2026-02-19 21:13 44.89954 20.58237 36809 ft 503 kts 139°
2026-02-19 21:13 44.85256 20.65534 36813 ft 503 kts 140°
2026-02-19 21:14 44.80553 20.72819 36826 ft 502 kts 140°
2026-02-19 21:14 44.75845 20.80092 36840 ft 502 kts 140°
2026-02-19 21:15 44.71138 20.87345 36840 ft 502 kts 140°
2026-02-19 21:15 44.66421 20.94593 36843 ft 503 kts 140°
2026-02-19 21:16 44.61695 21.01836 36855 ft 503 kts 140°
2026-02-19 21:16 44.56998 21.09019 36847 ft 503 kts 140°
2026-02-19 21:17 44.52265 21.16240 36856 ft 503 kts 140°
2026-02-19 21:17 44.47523 21.23451 36861 ft 504 kts 140°
2026-02-19 21:18 44.42769 21.30664 36886 ft 504 kts 140°
2026-02-19 21:18 44.38013 21.37864 36881 ft 504 kts 140°
2026-02-19 21:19 44.33253 21.45048 36900 ft 504 kts 140°
2026-02-19 21:19 44.28496 21.52249 36922 ft 505 kts 140°
2026-02-19 21:20 44.23743 21.59461 36911 ft 505 kts 140°
2026-02-19 21:20 44.18987 21.66662 36940 ft 504 kts 140°
2026-02-19 21:21 44.14230 21.73842 36966 ft 504 kts 140°
2026-02-19 21:21 44.09479 21.80990 36959 ft 503 kts 140°
2026-02-19 21:22 44.04722 21.88131 36977 ft 503 kts 140°
2026-02-19 21:22 43.99957 21.95262 36964 ft 503 kts 140°
2026-02-19 21:23 43.95182 22.02386 36985 ft 504 kts 140°
2026-02-19 21:23 43.90443 22.09445 36995 ft 503 kts 140°
2026-02-19 21:24 43.85667 22.16541 36989 ft 503 kts 141°
2026-02-19 21:24 43.80886 22.23626 36993 ft 503 kts 141°
2026-02-19 21:25 43.76100 22.30700 36982 ft 503 kts 141°
2026-02-19 21:25 43.71308 22.37764 36984 ft 503 kts 141°
2026-02-19 21:26 43.67191 22.45734 36959 ft 517 kts 126°
2026-02-19 21:26 43.63804 22.54545 36981 ft 522 kts 123°
2026-02-19 21:27 43.60557 22.63509 36978 ft 522 kts 123°
2026-02-19 21:27 43.57305 22.72469 36974 ft 522 kts 123°
2026-02-19 21:28 43.54020 22.81403 36961 ft 524 kts 123°
2026-02-19 21:28 43.50699 22.90357 36962 ft 525 kts 123°
2026-02-19 21:29 43.47364 22.99318 36957 ft 526 kts 123°
2026-02-19 21:29 43.44028 23.08260 36968 ft 525 kts 123°
2026-02-19 21:30 43.40680 23.17205 36964 ft 526 kts 124°
2026-02-19 21:30 43.37320 23.26151 36963 ft 526 kts 124°
2026-02-19 21:31 43.33956 23.35082 36933 ft 526 kts 124°
2026-02-19 21:31 43.30578 23.44016 36945 ft 528 kts 124°
2026-02-19 21:32 43.25500 23.57399 36956 ft 527 kts 124°
2026-02-19 21:33 43.22108 23.66303 36944 ft 526 kts 124°
2026-02-19 21:33 43.18704 23.75206 36954 ft 528 kts 124°
2026-02-19 21:34 43.15290 23.84112 36960 ft 528 kts 124°
2026-02-19 21:34 43.11871 23.93003 36971 ft 528 kts 124°
2026-02-19 21:35 43.08441 24.01895 36977 ft 529 kts 124°
2026-02-19 21:35 43.04997 24.10794 36977 ft 529 kts 124°
2026-02-19 21:36 43.01545 24.19692 36987 ft 529 kts 124°
2026-02-19 21:36 42.98088 24.28569 36997 ft 530 kts 124°
2026-02-19 21:37 42.94609 24.37478 37004 ft 532 kts 124°
2026-02-19 21:37 42.91120 24.46387 37001 ft 532 kts 124°
2026-02-19 21:38 42.87621 24.55289 37007 ft 533 kts 124°
2026-02-19 21:38 42.84707 24.62683 37026 ft 533 kts 124°
2026-02-19 21:39 42.81197 24.71567 37033 ft 532 kts 124°
2026-02-19 21:39 42.77684 24.80430 37010 ft 532 kts 124°
2026-02-19 21:40 42.74160 24.89290 37048 ft 533 kts 124°
2026-02-19 21:40 42.70630 24.98145 37063 ft 532 kts 124°
2026-02-19 21:41 42.67094 25.06993 37067 ft 533 kts 124°
2026-02-19 21:41 42.63548 25.15827 37064 ft 533 kts 124°
2026-02-19 21:42 42.59998 25.24646 37061 ft 532 kts 124°
2026-02-19 21:42 42.56442 25.33455 37064 ft 532 kts 124°
2026-02-19 21:43 42.52877 25.42258 37075 ft 533 kts 124°
2026-02-19 21:43 42.49298 25.51072 37086 ft 534 kts 124°
2026-02-19 21:44 42.45712 25.59875 37089 ft 534 kts 124°
2026-02-19 21:44 42.42117 25.68674 37086 ft 534 kts 124°
2026-02-19 21:45 42.38541 25.77400 37077 ft 534 kts 124°
2026-02-19 21:45 42.34912 25.86229 37094 ft 533 kts 124°
2026-02-19 21:46 42.31328 25.94922 37071 ft 533 kts 124°
2026-02-19 21:46 42.29524 25.99289 36901 ft 532 kts 124°
2026-02-19 21:46 42.27721 26.03648 36634 ft 532 kts 124°
2026-02-19 21:46 42.25911 26.08013 36372 ft 533 kts 124°
2026-02-19 21:47 42.24094 26.12387 36112 ft 533 kts 124°
2026-02-19 21:47 42.22297 26.16714 35850 ft 524 kts 124°
2026-02-19 21:47 42.20521 26.20984 35304 ft 521 kts 124°
2026-02-19 21:47 42.18741 26.25248 34580 ft 523 kts 124°
2026-02-19 21:48 42.16951 26.29529 33772 ft 525 kts 124°
2026-02-19 21:48 42.15156 26.33819 32943 ft 526 kts 124°
2026-02-19 21:48 42.13354 26.38120 32140 ft 527 kts 124°
2026-02-19 21:48 42.11558 26.42404 31566 ft 523 kts 124°
2026-02-19 21:49 42.09778 26.46647 31041 ft 517 kts 124°
2026-02-19 21:49 42.08016 26.50840 30477 ft 513 kts 124°
2026-02-19 21:49 42.06263 26.55002 29869 ft 509 kts 124°
2026-02-19 21:49 42.04523 26.59128 29273 ft 504 kts 124°
2026-02-19 21:50 42.02801 26.63206 28700 ft 499 kts 124°
2026-02-19 21:50 42.01093 26.67247 28121 ft 495 kts 124°
2026-02-19 21:50 41.99412 26.71219 27858 ft 483 kts 124°
2026-02-19 21:50 41.97769 26.75097 27652 ft 472 kts 124°
2026-02-19 21:51 41.96123 26.78864 27256 ft 464 kts 125°
2026-02-19 21:51 41.94454 26.82558 26725 ft 461 kts 126°
2026-02-19 21:51 41.92790 26.86222 26242 ft 458 kts 126°
2026-02-19 21:51 41.91141 26.89850 25829 ft 452 kts 126°
2026-02-19 21:52 41.89511 26.93437 25333 ft 449 kts 126°
2026-02-19 21:52 41.87887 26.97006 24858 ft 446 kts 126°
2026-02-19 21:52 41.86274 27.00550 24385 ft 443 kts 125°
2026-02-19 21:52 41.84674 27.04063 23946 ft 439 kts 126°
2026-02-19 21:53 41.83086 27.07546 23468 ft 436 kts 125°
2026-02-19 21:53 41.81421 27.10905 22928 ft 428 kts 134°
2026-02-19 21:53 41.79297 27.13594 22428 ft 415 kts 148°
2026-02-19 21:53 41.76966 27.15840 21857 ft 411 kts 151°
2026-02-19 21:54 41.74623 27.17985 21385 ft 406 kts 151°
2026-02-19 21:54 41.72300 27.20103 21085 ft 404 kts 151°
2026-02-19 21:54 41.69933 27.22261 20713 ft 418 kts 150°
2026-02-19 21:54 41.67521 27.24469 20309 ft 421 kts 150°
2026-02-19 21:55 41.65159 27.26643 19927 ft 414 kts 150°
2026-02-19 21:55 41.60746 27.31416 18946 ft 414 kts 130°
2026-02-19 21:55 41.59465 27.34840 18660 ft 412 kts 108°
2026-02-19 21:56 41.59159 27.38594 18478 ft 404 kts 85°
2026-02-19 21:56 41.59854 27.42142 18314 ft 390 kts 62°
2026-02-19 21:56 41.61410 27.44991 18126 ft 373 kts 41°
2026-02-19 21:56 41.63255 27.47354 17963 ft 362 kts 41°
2026-02-19 21:57 41.64988 27.49754 17633 ft 358 kts 45°
2026-02-19 21:57 41.66602 27.52289 17205 ft 358 kts 48°
2026-02-19 21:57 41.68125 27.54911 16807 ft 356 kts 50°
2026-02-19 21:57 41.69588 27.57571 16408 ft 354 kts 52°
2026-02-19 21:58 41.71013 27.60247 16021 ft 352 kts 52°
2026-02-19 21:58 41.72411 27.62918 15629 ft 349 kts 53°
2026-02-19 21:58 41.73780 27.65562 15359 ft 343 kts 54°
2026-02-19 21:58 41.75033 27.68282 14969 ft 342 kts 59°
2026-02-19 21:59 41.76173 27.71075 14597 ft 340 kts 60°
2026-02-19 21:59 41.77178 27.73929 14073 ft 343 kts 70°
2026-02-19 21:59 41.77624 27.77121 13081 ft 357 kts 91°
2026-02-19 21:59 41.77140 27.80377 12528 ft 359 kts 110°
2026-02-19 22:00 41.76281 27.83526 12254 ft 359 kts 114°
2026-02-19 22:00 41.75367 27.86627 12002 ft 357 kts 114°
2026-02-19 22:00 41.74445 27.89705 11749 ft 355 kts 114°
2026-02-19 22:00 41.73525 27.92768 11502 ft 354 kts 114°
2026-02-19 22:01 41.72607 27.95819 11258 ft 351 kts 114°
2026-02-19 22:01 41.71709 27.98810 10964 ft 343 kts 114°
2026-02-19 22:01 41.70821 28.01758 10522 ft 341 kts 114°
2026-02-19 22:01 41.69944 28.04670 10293 ft 331 kts 114°
2026-02-19 22:02 41.69105 28.07457 10213 ft 316 kts 115°
2026-02-19 22:02 41.68299 28.10129 10091 ft 304 kts 115°
2026-02-19 22:02 41.67518 28.12715 9922 ft 296 kts 115°
2026-02-19 22:02 41.66743 28.15270 9511 ft 298 kts 115°
2026-02-19 22:03 41.65963 28.17840 9137 ft 298 kts 115°
2026-02-19 22:03 41.65186 28.20400 8787 ft 296 kts 116°
2026-02-19 22:03 41.64412 28.22948 8440 ft 295 kts 116°
2026-02-19 22:03 41.63644 28.25479 8100 ft 293 kts 116°
2026-02-19 22:04 41.62878 28.27997 7744 ft 292 kts 116°
2026-02-19 22:04 41.62116 28.30499 7384 ft 289 kts 116°
2026-02-19 22:04 41.61361 28.32976 7053 ft 286 kts 116°
2026-02-19 22:04 41.60613 28.35431 6700 ft 284 kts 116°
2026-02-19 22:05 41.59869 28.37869 6348 ft 283 kts 116°
2026-02-19 22:05 41.59128 28.40294 5999 ft 281 kts 116°
2026-02-19 22:05 41.58403 28.42666 5651 ft 279 kts 117°
2026-02-19 22:05 41.57670 28.45060 5285 ft 278 kts 117°
2026-02-19 22:06 41.56994 28.47483 5027 ft 281 kts 109°
2026-02-19 22:06 41.56838 28.50101 4985 ft 287 kts 90°
2026-02-19 22:06 41.57045 28.52758 4978 ft 288 kts 85°
2026-02-19 22:06 41.57314 28.55370 4994 ft 276 kts 85°
2026-02-19 22:07 41.57573 28.57841 4995 ft 261 kts 85°
2026-02-19 22:07 41.57811 28.60176 4993 ft 247 kts 86°
2026-02-19 22:07 41.58033 28.62405 4997 ft 240 kts 86°
2026-02-19 22:07 41.58247 28.64603 4980 ft 237 kts 85°
2026-02-19 22:08 41.58457 28.66784 4985 ft 236 kts 85°
2026-02-19 22:08 41.58549 28.68958 4983 ft 233 kts 101°
2026-02-19 22:08 41.57977 28.70892 5000 ft 220 kts 135°
2026-02-19 22:08 41.56782 28.72012 4995 ft 206 kts 168°
2026-02-19 22:09 41.55394 28.72289 5002 ft 198 kts 182°
2026-02-19 22:09 41.54070 28.72321 5019 ft 182 kts 185°
2026-02-19 22:09 41.52852 28.72322 5004 ft 169 kts 185°
2026-02-19 22:09 41.51693 28.72323 5003 ft 165 kts 186°
2026-02-19 22:10 41.50547 28.72327 4998 ft 165 kts 185°
2026-02-19 22:10 41.49402 28.72337 5001 ft 165 kts 185°
2026-02-19 22:10 41.48257 28.72352 4996 ft 165 kts 185°
2026-02-19 22:10 41.47111 28.72370 4993 ft 165 kts 185°
2026-02-19 22:11 41.45962 28.72390 4991 ft 165 kts 185°
2026-02-19 22:11 41.44804 28.72410 4744 ft 167 kts 185°
2026-02-19 22:11 41.43655 28.72432 4552 ft 164 kts 185°
2026-02-19 22:11 41.42533 28.72455 4377 ft 159 kts 185°
2026-02-19 22:12 41.41429 28.72476 4151 ft 159 kts 185°
2026-02-19 22:12 41.40288 28.72492 3682 ft 171 kts 185°
2026-02-19 22:12 41.39075 28.72510 3355 ft 176 kts 184°
2026-02-19 22:12 41.37850 28.72533 3062 ft 175 kts 184°
2026-02-19 22:13 41.36655 28.72553 2758 ft 168 kts 183°
2026-02-19 22:13 41.35483 28.72583 2218 ft 171 kts 182°
2026-02-19 22:13 41.34285 28.72609 1697 ft 173 kts 182°
2026-02-19 22:13 41.33073 28.72629 1199 ft 174 kts 181°
2026-02-19 22:14 41.31885 28.72626 826 ft 167 kts 179°
2026-02-19 22:14 41.30764 28.72680 594 ft 153 kts 178°
2026-02-19 22:14 41.29741 28.72698 372 ft 141 kts 179°
2026-02-19 22:14 41.28844 28.72711 336 ft 108 kts 178°
2026-02-19 22:15 41.28290 28.72728 332 ft 55 kts 179°
2026-02-19 22:15 41.28028 28.72734 337 ft 25 kts 179°
2026-02-19 22:15 41.27861 28.72774 333 ft 21 kts 159°
2026-02-19 22:15 41.27786 28.72822 332 ft 12 kts 151°
2026-02-19 22:16 41.27712 28.72880 335 ft 13 kts 149°
2026-02-19 22:16 41.27626 28.72948 332 ft 15 kts 149°
2026-02-19 22:16 41.27528 28.72973 336 ft 14 kts 182°
2026-02-19 22:16 41.27424 28.72974 333 ft 16 kts 179°
2026-02-19 22:17 41.27309 28.72978 334 ft 17 kts 178°
2026-02-19 22:17 41.27183 28.72982 333 ft 19 kts 179°
2026-02-19 22:17 41.27049 28.72984 334 ft 19 kts 179°
2026-02-19 22:17 41.26952 28.72986 336 ft 13 kts 179°
2026-02-19 22:18 41.26876 28.73015 332 ft 10 kts 129°
2026-02-19 22:18 41.26867 28.73094 335 ft 6 kts 91°
2026-02-19 22:18 41.26866 28.73161 334 ft 8 kts 88°
2026-02-19 22:18 41.26868 28.73249 335 ft 11 kts 89°
2026-02-19 22:19 41.26869 28.73356 334 ft 11 kts 89°
2026-02-19 22:19 41.26870 28.73463 334 ft 9 kts 89°
2026-02-19 22:19 41.26863 28.73521 334 ft 5 kts 118°
2026-02-19 22:19 41.26847 28.73532 332 ft 1 kts 174°
2026-02-19 22:20 41.26837 28.73529 335 ft 2 kts 190°
2026-02-19 22:20 41.26829 28.73527 333 ft 0 kts 187°
2026-02-19 22:20 41.26819 28.73528 335 ft 2 kts 179°
2026-02-19 22:20 41.26800 28.73528 336 ft 4 kts 178°
2026-02-19 22:21 41.26791 28.73528 337 ft 2 kts 179°
2026-02-19 22:21 41.26783 28.73529 337 ft 0 kts 179°